Regional Weather Roundup
Issued by NWS Upton, NY

Current Version | Previous Version | Text Only | Print | Product List | Glossary Off
Versions: 1 2 3 4 5 6 7 8 9 10 11 12 13 14 15 16 17 18 19 20 21 22 23 24 25 26 27 28 29 30 31 32 33 34 35 36 37 38 39 40 41 42 43 44 45 46 47 48 49 50
000 ASUS41 KOKX 292018 RWROKX REGIONAL WEATHER ROUNDUP NATIONAL WEATHER SERVICE NEW YORK NY 400 PM EDT MON JUN 29 2015 NOTE: "FAIR" INDICATES FEW OR NO CLOUDS BELOW 12,000 FEET WITH NO SIGNIFICANT WEATHER AND/OR OBSTRUCTIONS TO VISIBILITY. NYZ071-072-176-178-NJZ106-104-292100- NEW YORK CITY METRO AREA CITY SKY/WX TMP DP RH WIND PRES REMARKS CENTRAL PARK CLOUDY 74 55 51 VRB7 29.93S LAGUARDIA APRT PTSUNNY 76 53 44 W10 29.90R KENNEDY INTL CLOUDY 76 55 48 W15 29.91S NEWARK/LIBERTY PTSUNNY 77 56 48 W16G22 29.91R BRNX BOT. GARD N/A 73 54 49 SW20 29.90F TETERBORO CLOUDY 75 56 51 NW10 29.90R $$ NYZ177-179-078>081-292100- LONG ISLAND NEW YORK CITY SKY/WX TMP DP RH WIND PRES REMARKS FARMINGDALE CLOUDY 73 59 61 SW12 29.90S ISLIP PTSUNNY 73 58 59 SW14 29.89R SHIRLEY PTSUNNY 72 58 61 SW12G22 29.90F WESTHAMPTON PTSUNNY 71 57 61 SW15G24 29.92R MONTAUK POINT N/A 74 61 63 SW7 29.90F $$ NYZ052-065-067-292100- HUDSON VALLEY CITY SKY/WX TMP DP RH WIND PRES REMARKS WHITE PLAINS PTSUNNY 73 56 54 W7 29.90S NEWBURGH PTSUNNY 72 61 68 W14 29.91S MONTGOMERY CLOUDY 73 59 61 SW14 29.89S POUGHKEEPSIE CLOUDY 75 57 53 W10 29.88R ALBANY PTSUNNY 71 58 63 W13 29.88R $$ NJZ001-105-106-008-010-013-015-019>022-104-292100- NEW JERSEY CITY SKY/WX TMP DP RH WIND PRES REMARKS NEWARK/LIBERTY PTSUNNY 77 56 48 W16G22 29.91R TETERBORO CLOUDY 75 56 51 NW10 29.90R CALDWELL CLOUDY 75 55 49 W8 29.92R MORRISTOWN PTSUNNY 75 57 53 W12 29.92S SOMERVILLE MOSUNNY 77 57 50 VRB5 29.90F SUSSEX MOSUNNY 73 57 57 SW6 29.91F ANDOVER N/A 73 58 59 VRB6 29.92F TRENTON PTSUNNY 76 55 48 W12G20 29.92F MILLVILLE SUNNY 80 57 45 NW13 29.94S ATLANTIC CITY PTSUNNY 78 56 46 W12G17 29.93S WRIGHTSTOWN MOSUNNY 77 57 50 W8G17 29.90S TOMS RIVER CLOUDY 79 55 44 W14 29.92F BELMAR CLOUDY 75 55 50 W10G16 29.92S $$ PAZ047>061-062-071-292100- EASTERN PENNSYLVANIA CITY SKY/WX TMP DP RH WIND PRES REMARKS PHILADELPHIA MOSUNNY 80 55 42 W9 29.93F ALLENTOWN MOSUNNY 77 57 50 S3 29.92F SCRANTON PTSUNNY 74 56 53 SW6 29.91F $$ CTZ002-004>006-009-010-012-RIZ004-006-007-MAZ004-011-015-292100- SOUTHERN NEW ENGLAND IN CT CITY SKY/WX TMP DP RH WIND PRES REMARKS BRADLEY INTL PTSUNNY 75 59 57 W8 29.85S HARTFORD CLOUDY 75 57 53 SW12G20 29.86S DANBURY PTSUNNY 74 56 53 W10 29.90S WTRBRY/OXFORD PTSUNNY 73 55 53 W3 29.91S BRIDGEPORT CLOUDY 75 59 57 SW13 29.88S MERIDEN PTSUNNY 75 56 51 SW8 29.87S NEW HAVEN PTSUNNY 71 60 68 SW9 29.88S CHESTER MOCLDY 72 57 60 SW10 29.90S GROTON MOSUNNY 73 58 59 SW14 29.87S WILLIMANTIC CLOUDY 74 60 61 SW9 29.87S IN RI CITY SKY/WX TMP DP RH WIND PRES REMARKS PROVIDENCE PTSUNNY 74 60 61 W9 29.86S BLOCK ISLAND SUNNY 72 59 64 W14 29.90S WESTERLY SUNNY 73 57 57 W10G20 29.89S IN MA CITY SKY/WX TMP DP RH WIND PRES REMARKS BOSTON PTSUNNY 72 59 63 SW8 29.85R WORCESTER CLOUDY 70 57 63 SW8 29.87S WESTFIELD CLOUDY 76 57 51 W8 29.85S PROVINCETOWN SUNNY 73 16 11 SW16 29.86S NANTUCKET SUNNY 69 60 73 SW16 29.90S $$ ANZ330-335-338-340-345-350-353-355-292100- COASTAL MARINE OBSERVATIONS STATION/POSITION TIME SKY/WX TEMP WIND PRES VSBY WAVE AIR SEA DIR/SP/G HT/PER (UTC) (F) (DEG/KT/KT) (MB) (MI) (FT/S) NY HARB ENTRANCE 1950 70 69 130/ 4/ 6 1012.5 4/ 9 4S FIRE IS 1903 66 N/A 4/ 8 20S FIRE ISLAND 1950 67 66 220/ 12/ 14 1012.8 4/ 8 GREAT SOUTH BAY 1900 70 72 250/ 16/ 17 N/A 23SW MTP 1950 66 66 240/ 16/ 19 1012.2 6/ 8 HUDSON CANYON NOT AVBL KINGS POINT 1900 72 66 290/ 6/ 9 1011.7 CENTRAL LI SOUND NOT AVBL EASTERN LI SOUND NOT AVBL ROBBINS REEF 1900 73 280/ 9/ 17 1011.5 $$ >>>>>>>>>>>>>>>>>>>>>>>>>>>> KEY <<<<<<<<<<<<<<<<<<<<<<<<<<< > < > SKY/WX - SKY CONDITION/PRESENT WEATHER < > TMP - TEMPERATURE IN FAHRENHEIT < > DP - DEWPOINT IN FAHRENHEIT < > RH - RELATIVE HUMIDITY IN PERCENT < > WIND - DIRECTION AND SPEED IN MPH < > PRES - MEAN SEA LEVEL PRESSURE IN INCHES OF HG < > WCI - WIND CHILL INDEX < > VSB - VISIBILITY IN MILES < > HX - HEAT INDEX < > TC - TEMPERATURE IN CELSIUS < > VRB - VARIABLE WIND DIRECTION < > < >>>>>>>>>>>>>>>>>>>>>>>>>>>> KEY <<<<<<<<<<<<<<<<<<<<<<<<<<<

USA.gov is the U.S. government's official web portal to all federal, state and local government web resources and services.